Weather Roundup
Issued by NWS Chicago, IL

Home | Current Version | Previous Version | Text Only | Print | Product List | Glossary Off
Versions: 1 2 3 4 5 6 7 8 9 10 11 12 13 14 15 16 17 18 19 20 21 22 23 24 25 26 27 28 29 30 31 32 33 34 35 36 37 38 39 40 41 42 43 44 45 46 47 48 49 50

000
NZUS59 KLOT 311308
HRRLOT

CHICAGO AREA WEATHER ROUNDUP
NATIONAL WEATHER SERVICE CHICAGO/ROMEOVILLE IL
800 AM CDT FRI JUL 31 2015

NOTE: "FAIR" INDICATES FEW OR NO CLOUDS BELOW 12,000 FEET WITH NO
SIGNIFICANT WEATHER AND/OR OBSTRUCTIONS TO VISIBILITY.

* THESE STATIONS ARE NOT UNDER NWS QUALITY CONTROL. THEY ALSO MAY NOT
  REPORT WEATHER SUCH AS PRECIPITATION OR FOG.

ILZ005-006-012>014-019>023-311400-
NORTHEAST ILLINOIS

CITY           SKY/WX    TMP DP  RH WIND       PRES   REMARKS
OHARE          PTSUNNY   73  60  63 W13       30.03R
MIDWAY         PTSUNNY   75  60  59 W6        30.02S
AURORA         CLOUDY    68  64  87 NW5       30.06R
LANSING*       SUNNY     73  61  65 W7        30.03S
JOLIET*        MOSUNNY   73  68  84 SW3       30.04R
WAUKEGAN       CLOUDY    70  60  70 VRB3      30.00S
DUPAGE AIRPORT CLOUDY    68  61  78 W5        30.04R
WHEELING       CLOUDY    72  59  63 W7        30.03R
KANKAKEE*      SUNNY     73  68  84 W6        30.06F
MORRIS*        SUNNY     72  68  87 W9        30.03F
LEWIS AIRPORT* PTSUNNY   71  64  78 W3        30.04S
NORTHERLY IS     N/A     76  57  51 W12         N/A
$$

WIZ051-052-058>065-066-070>072-311400-
SOUTHEAST WISCONSIN

CITY           SKY/WX    TMP DP  RH WIND       PRES   REMARKS
MILWAUKEE      MOSUNNY   74  58  57 W10       29.99S
KENOSHA*       PTSUNNY   70  61  73 W8        30.00S
RACINE*        MOSUNNY   73  59  61 W8        30.01S
BURLINGTON     MOSUNNY   71  59  65 W12       30.00S
WAUKESHA       SUNNY     70  57  64 W10       30.01R
WEST BEND      SUNNY     72  55  56 W10       29.98S
$$

INZ001>003-010>013-019-020-311400-
NORTHWEST INDIANA

CITY           SKY/WX    TMP DP  RH WIND       PRES   REMARKS
GARY*          MOSUNNY   73  63  68 W8        30.03S
MICHIGAN CITY* NOT AVBL
RENSSELAER*    NOT AVBL
VALPARAISO     SUNNY     73  61  65 W8        30.04S
$$

LMZ740>746-311400-
SOUTHERN LAKE MICHIGAN

STATION/POSITION TIME  SKY/WX   TEMP WIND        PRES    VSBY
                                AIR  DIR/SP/G
                 (UTC)          (F)  (DEG/KT/KT) (MB)    (MI)
HARRISON CRIB    1200            74  260/ 14/ 16   N/A
BURNHAM HARBOR   1300            75  270/  6/ 10   N/A
CALUMET HARBOR   1200            71  220/  5/  6   N/A
BURNS HARBOR     1200            71  230/  8/ 10 1017.3R
MICHIGAN CITY    1200            71  190/  8/  9   N/A
$$

ABBREVIATIONS USED IN REMARKS
   TC - TEMPERATURE IN CELSIUS
  WCI - WIND CHILL INDEX
   HX - HEAT INDEX
  VSB - VISIBILITY
$$



USA.gov is the U.S. government's official web portal to all federal, state and local government web resources and services.